User: anonymous   Login
Location: Unspecified
(0.0000°N, 0.0000°E)
Time: 22:59:52
(UTC+00:00)
Language:

NNS O-23 - Orbit

View from above orbital plane
View from above orbital plane
View from above satellite
View from above satellite

Ground track
Ground track

The orbit data is extracted from the following two-line orbital elements,

1 19070U 88033A   17267.63332521 +.00000008 +00000-0 +30314-5 0  9991
2 19070 090.3600 276.9639 0188819 243.7952 240.1747 13.27413986424353
Epoch (UTC): 24 September 2017 15:11:59
Eccentricity: 0.0188819
inclination: 90.3600°
perigee height: 1014 km
apogee height: 1299 km
right ascension of ascending node: 276.9639°
argument of perigee: 243.7952°
revolutions per day: 13.27413986
mean anomaly at epoch: 240.1747°
orbit number at epoch: 42435

The dashed part of the orbit path shows where the satellite is in the earth's shadow,  

DLR